Theta_e
324 324 325 324 324 324 325 326 327 327 328 327 327 325 324 324 322 316 305 312 315 324 317 307 309 309 310 307 307 307 303 299 299 299 300 303 304 304 306 306 307 311 308 314 330
323 324 324 324 324 324 324 325 326 326 326 327 325 324 324 322 311 306 317 324 326 325 307 306 304 306 305 305 306 306 302 301 303 303 303 304 305 305 305 304 305 307 310 323 331
322 323 323 324 323 324 325 325 324 324 324 324 324 323 323 319 304 304 322 327 327 322 309 308 308 306 303 304 303 302 302 302 301 301 303 303 302 305 304 303 307 307 309 322 327
322 322 322 322 324 323 323 324 323 323 323 323 323 322 321 314 292 308 327 328 325 312 308 305 305 302 302 301 302 300 299 301 301 302 301 302 304 303 304 306 305 308 310 321 326
320 321 320 322 323 323 323 322 321 321 321 322 322 322 314 303 303 312 323 322 312 307 305 305 303 302 299 301 300 300 299 299 301 300 301 301 301 302 302 307 305 304 309 315 323
319 319 318 320 322 323 322 321 320 320 320 321 322 321 309 296 310 314 313 310 308 307 305 305 305 304 300 298 299 299 299 299 299 300 300 299 298 299 302 302 302 303 306 311 318
319 318 318 320 321 322 321 320 320 320 320 320 322 316 304 300 311 312 310 309 309 307 304 306 305 303 303 299 300 299 297 298 298 299 299 300 298 298 302 301 301 301 305 307 313
318 317 317 319 320 320 320 320 320 320 320 321 322 314 299 310 311 307 308 307 308 308 307 308 308 303 302 301 299 297 298 294 296 298 298 298 295 297 300 300 301 302 303 304 306
317 317 318 318 319 319 319 319 319 318 319 321 311 305 296 313 306 308 308 306 307 307 306 305 306 301 300 297 295 294 292 292 292 297 298 297 295 297 299 300 300 302 303 303 304
316 317 318 318 318 318 319 318 317 318 316 314 307 301 301 301 307 306 307 307 305 306 304 303 300 298 297 295 289 291 289 290 291 295 296 295 296 300 301 300 302 303 303 303 304
317 317 317 318 318 318 316 312 303 301 305 298 299 297 299 306 308 304 306 304 303 303 297 297 295 292 295 296 293 294 292 291 291 294 295 295 295 298 301 300 301 303 304 305 305
317 317 317 318 318 318 310 302 301 303 295 301 300 301 305 306 300 302 305 301 300 294 296 295 292 295 292 293 293 292 291 290 292 294 294 293 294 298 300 301 302 303 303 304 303
316 317 317 317 317 313 306 301 310 306 295 296 300 299 302 303 298 300 303 298 296 293 294 293 292 294 293 291 291 291 291 290 290 291 292 291 293 294 297 295 297 298 300 299 299
316 316 316 317 310 309 303 311 312 304 290 290 294 298 302 302 296 302 303 299 294 292 293 292 292 292 292 290 292 288 292 291 290 291 287 290 286 293 295 295 295 297 298 300 301
316 316 316 315 309 304 306 313 313 301 279 293 293 302 300 297 298 298 303 299 293 292 294 291 290 290 290 292 292 290 292 292 290 291 290 289 287 292 290 293 296 298 300 301 301
315 315 316 311 311 309 312 312 306 288 279 288 294 293 294 294 295 297 298 299 297 294 292 292 294 293 292 291 292 292 292 291 290 289 284 289 288 290 291 293 294 296 300 300 300
315 315 313 313 305 312 314 307 288 283 291 288 289 292 292 290 292 294 293 292 291 287 288 290 291 293 293 291 292 291 291 284 283 283 282 284 284 291 293 292 295 295 300 299 300
309 314 309 309 311 313 309 295 283 286 287 293 292 291 289 291 290 291 291 289 292 290 287 285 283 290 293 292 290 290 291 285 280 279 283 283 283 290 293 296 296 297 299 299 300
305 303 305 307 309 311 299 284 286 287 292 291 290 287 287 289 290 290 291 291 293 291 288 285 285 291 291 292 294 289 287 290 282 276 283 286 289 293 293 293 296 297 298 298 298
299 300 301 308 308 308 293 287 289 291 294 293 287 289 285 287 287 288 288 292 291 292 292 289 283 289 290 293 292 291 292 286 286 281 280 283 284 288 290 292 296 296 297 297 297
295 294 301 307 307 299 286 288 290 296 297 292 289 287 288 287 288 287 288 290 293 291 292 290 289 286 289 288 288 287 287 287 288 287 284 281 286 293 294 295 296 297 298 297 298
292 289 300 304 289 286 287 291 294 294 298 296 294 291 288 289 287 288 287 290 293 292 288 291 289 284 287 289 290 289 289 289 285 282 283 283 286 292 292 297 299 297 296 297 298
290 292 300 302 284 285 287 291 293 294 295 295 294 294 293 289 286 289 289 294 295 292 291 291 289 283 284 287 290 288 288 290 289 288 284 284 286 292 293 295 297 296 296 296 296
290 285 290 295 291 288 287 288 288 294 293 294 294 295 293 290 293 287 288 293 296 294 296 295 288 287 283 285 289 286 287 288 288 286 286 286 289 291 292 294 295 296 296 296 295
287 284 287 284 285 289 289 288 287 287 293 294 291 292 293 288 290 289 291 293 295 296 295 292 286 287 288 288 289 289 288 287 287 289 286 289 288 292 295 295 297 297 296 294 293
286 285 287 285 288 287 288 287 287 288 290 288 289 291 292 291 291 288 291 291 291 294 293 293 286 286 283 287 287 286 287 288 289 289 289 290 289 293 297 299 296 296 294 293 293
289 290 288 285 286 285 286 286 288 290 290 292 292 290 289 291 293 294 294 295 295 293 291 290 286 285 284 285 286 283 286 288 289 291 290 287 291 294 292 295 295 295 295 294 293
Wind_Speed
18 17 17 17 15 15 15 15 14 13 12 10 10 9 7 5 7 6 5 9 6 8 5 5 3 4 4 3 1 1 4 5 8 7 7 8 7 3 1 2 3 4 2 4 13
18 16 17 17 16 15 16 14 13 12 12 14 11 8 10 6 5 5 10 10 8 10 7 11 6 5 4 4 3 5 4 8 5 5 6 10 6 8 6 5 5 4 3 5 12
17 18 17 16 17 16 15 15 13 12 12 11 12 9 8 7 2 8 7 12 10 10 3 4 8 5 4 2 3 3 6 6 5 3 4 10 5 4 6 6 8 10 11 10 11
19 16 16 16 16 17 16 14 13 13 13 12 11 10 8 3 7 2 3 9 10 6 9 6 8 6 5 7 2 5 2 3 6 5 5 8 7 5 7 2 3 4 5 13 14
19 18 17 14 15 15 16 14 13 11 11 11 10 9 5 3 9 4 6 6 5 6 8 7 10 5 5 6 5 2 6 4 6 7 6 5 3 1 9 8 3 3 5 11 13
21 18 16 14 16 15 15 14 13 11 9 8 8 10 2 13 2 5 7 5 5 6 7 8 8 4 6 4 2 3 6 8 4 5 4 3 3 2 2 1 6 7 7 9 12
20 18 17 16 16 15 14 14 13 10 8 7 8 4 4 9 2 4 7 4 5 3 5 4 7 2 7 6 3 7 5 5 3 2 3 1 5 8 3 2 3 7 9 8 9
19 18 17 16 16 16 14 13 11 11 7 7 7 4 5 1 4 4 3 3 2 2 2 4 6 8 1 7 4 4 2 6 4 4 2 4 11 1 1 7 12 8 7 9 9
20 19 18 18 16 15 14 12 10 9 7 8 4 3 2 3 3 3 4 8 6 3 5 2 4 4 4 7 5 1 6 6 3 0 2 6 5 2 1 2 6 7 8 7 8
21 20 19 19 17 16 15 13 8 9 5 2 1 4 4 4 4 3 0 5 4 6 5 4 4 4 5 8 11 10 5 3 4 4 2 4 12 9 8 7 8 8 7 9 9
22 20 20 20 18 18 16 10 8 5 3 4 4 1 4 2 3 1 2 4 4 4 6 2 6 13 16 8 2 8 5 6 3 1 4 8 12 14 12 8 12 12 12 12 11
22 21 21 19 18 17 6 7 7 6 7 2 1 2 2 3 5 1 2 5 7 10 6 5 12 5 8 8 7 8 6 4 3 2 3 2 13 12 13 12 11 12 12 12 9
22 22 21 18 15 8 7 4 4 4 5 2 2 3 4 4 4 9 5 3 5 8 9 10 2 12 7 7 7 3 5 4 1 2 2 6 10 6 4 6 7 8 9 7 8
22 23 21 19 8 7 7 4 5 1 5 6 6 4 4 4 2 2 1 2 3 7 6 3 2 9 10 7 4 5 6 6 7 4 3 3 6 5 3 9 5 4 4 1 3
22 23 24 19 8 10 8 9 6 1 6 10 4 2 2 5 7 2 1 2 9 8 6 6 10 11 8 6 6 3 6 7 3 3 2 3 6 3 2 9 5 7 3 2 2
23 23 24 4 2 3 9 10 3 4 10 6 5 8 8 2 3 3 3 5 4 4 5 4 3 2 3 5 2 13 9 6 4 1 6 5 7 7 6 3 3 4 3 2 3
17 23 16 3 4 8 8 4 5 8 5 9 6 7 9 5 5 3 11 11 9 8 7 2 2 1 3 10 5 3 10 4 4 6 5 2 5 10 4 4 3 2 2 3 4
14 20 6 2 1 8 3 6 6 7 6 4 5 12 10 9 2 2 11 12 7 4 6 10 6 9 5 3 10 7 6 6 7 6 2 2 9 5 2 2 3 2 3 4 4
8 3 3 3 3 2 7 10 7 7 11 10 9 11 7 5 6 6 11 15 12 11 8 8 6 1 1 2 6 8 8 3 8 2 2 6 5 11 7 7 4 6 6 4 4
3 3 2 1 2 4 10 14 5 2 6 9 8 7 14 11 8 9 12 7 7 9 1 8 5 2 1 1 2 4 12 4 2 5 6 5 6 8 6 11 10 10 9 6 4
3 3 4 7 4 9 16 8 3 2 2 5 5 6 7 10 8 9 10 3 6 11 2 6 4 2 2 8 13 6 7 1 3 3 4 3 5 5 9 11 14 11 9 8 7
3 3 3 3 4 3 6 7 3 5 1 2 3 5 8 10 9 10 14 2 3 13 13 4 5 6 8 1 3 2 8 10 6 7 4 1 7 1 2 9 12 12 9 7 7
3 3 2 2 5 4 1 4 3 5 5 3 3 1 2 7 6 7 6 2 1 9 14 10 4 5 2 2 0 7 6 8 2 2 9 7 9 3 0 9 8 12 10 9 9
3 4 2 2 1 5 5 4 4 2 3 4 4 2 5 3 2 8 5 1 1 1 2 2 3 12 15 6 8 8 8 7 9 5 15 12 18 4 7 12 11 11 11 11 10
3 2 2 5 5 6 3 4 7 4 1 2 3 2 5 4 4 4 4 5 2 0 1 3 7 5 8 2 4 5 13 17 17 26 13 25 19 14 16 17 18 15 14 13 13
2 3 1 3 6 8 8 6 6 4 6 5 5 9 4 6 3 8 8 6 4 3 4 1 2 2 1 2 2 2 8 18 24 25 21 24 21 1 14 14 13 16 16 16 14
1 1 1 4 6 7 6 9 11 10 1 2 9 6 5 6 5 5 4 3 4 7 6 7 7 4 5 5 4 4 22 15 14 17 17 21 30 8 8 15 17 17 18 17 15
Wind_Direction
199 182 177 178 179 178 178 180 182 188 183 204 231 169 208 207 142 80 257 238 213 179 141 132 141 135 134 129 131 181 191 176 174 184 135 150 170 128 71 169 183 184 310 52 140
185 182 175 175 172 180 178 177 177 174 177 189 217 185 187 132 55 287 228 241 223 169 150 173 155 135 159 148 162 222 189 184 174 170 159 159 184 150 193 177 196 192 151 131 155
185 180 175 178 172 179 176 169 167 166 167 178 192 184 153 127 100 238 295 203 191 187 171 181 140 159 170 173 175 191 189 153 164 160 164 150 171 154 185 203 217 214 181 164 172
182 176 169 185 172 180 169 166 159 160 168 176 189 158 108 78 204 123 199 175 176 186 141 145 155 157 169 175 185 160 74 153 143 144 139 158 129 186 218 114 45 212 180 172 185
173 170 169 182 170 174 165 168 158 164 162 168 166 138 115 163 242 126 157 160 151 171 164 161 170 147 180 161 152 124 141 97 116 126 100 129 149 216 242 228 176 73 173 197 200
169 165 166 179 163 171 162 163 158 158 153 162 157 136 165 215 144 159 154 153 188 188 165 164 186 161 114 143 223 83 131 119 127 112 96 190 139 260 228 219 217 216 210 210 217
163 164 172 172 161 162 157 158 157 146 153 165 165 141 211 215 179 159 161 196 177 177 161 170 142 172 137 121 126 126 107 127 113 127 97 208 228 225 246 241 255 211 219 217 218
164 166 170 168 158 154 156 152 153 146 161 165 176 167 221 76 140 141 175 121 139 98 113 136 131 102 50 125 78 113 148 180 121 177 105 236 244 200 338 250 249 238 216 224 220
163 167 169 158 158 155 156 148 145 151 149 158 176 225 214 133 160 164 200 157 133 115 72 99 72 90 141 146 125 111 182 202 164 104 144 211 245 131 140 273 267 246 226 218 216
164 165 161 155 157 154 151 141 147 133 110 173 164 187 161 201 135 157 273 139 124 131 111 55 69 128 154 189 188 175 163 164 201 147 239 215 250 246 226 253 261 254 234 225 232
160 162 158 156 157 158 143 128 146 144 198 206 193 112 120 120 103 161 194 124 124 148 159 71 181 192 180 178 128 142 150 155 118 106 191 247 263 267 270 245 253 250 245 247 244
157 161 158 157 165 166 182 180 178 133 162 230 89 72 115 216 114 194 190 164 163 159 140 156 211 173 101 127 123 125 155 156 117 97 230 268 271 261 259 256 242 240 247 259 272
159 158 154 156 156 160 208 213 135 157 121 181 193 175 169 174 136 172 186 157 145 145 187 181 143 144 136 141 143 122 170 170 95 123 73 302 271 241 231 259 265 244 252 263 279
160 154 151 144 147 176 201 177 152 212 153 173 203 224 135 162 111 359 196 157 110 156 152 126 109 149 140 166 151 180 172 131 126 180 232 319 282 270 214 263 232 237 204 287 352
157 154 156 163 141 179 154 156 142 185 205 151 160 81 139 177 123 207 302 101 153 143 194 153 161 152 175 184 171 137 130 127 96 122 276 188 262 254 7 264 213 151 120 68 52
157 158 162 183 213 158 140 137 149 150 230 157 137 166 140 75 87 138 146 64 108 92 41 70 348 134 111 71 55 142 107 78 85 144 244 211 243 246 206 239 144 133 105 85 96
170 157 163 156 194 152 145 160 126 200 144 171 171 175 154 139 118 201 175 164 160 152 167 122 140 61 146 106 108 218 162 120 198 203 246 73 226 269 240 205 161 74 74 91 98
54 154 92 41 204 158 137 165 185 157 186 109 132 138 174 145 147 141 156 183 219 104 141 169 202 178 172 188 166 187 211 169 192 199 164 106 233 234 146 5 268 179 112 115 104
55 32 76 16 353 259 152 202 196 179 140 141 130 148 177 179 135 157 191 199 198 186 165 170 191 14 38 146 169 168 210 76 100 38 254 208 245 266 221 235 176 152 145 120 99
48 60 82 329 34 192 169 206 168 151 126 154 157 185 176 174 153 188 170 183 191 187 250 181 114 9 123 172 27 215 136 138 208 192 227 224 268 242 204 198 176 169 153 135 110
71 116 344 329 167 178 194 190 152 178 186 168 135 142 173 170 173 188 195 158 191 176 174 140 121 122 163 217 175 151 178 156 172 196 206 260 240 220 225 178 175 171 159 146 134
115 104 338 344 91 64 182 153 134 154 180 119 100 110 163 161 163 187 198 245 157 153 188 166 110 155 193 37 349 332 202 182 192 198 259 350 254 27 261 182 171 162 155 140 128
80 86 331 43 146 150 57 129 138 146 173 149 103 56 120 154 144 200 166 72 164 178 169 174 181 112 127 215 198 220 186 223 184 60 201 191 251 26 92 182 171 162 162 160 150
129 123 30 74 211 118 132 140 132 353 90 68 104 104 119 129 9 164 139 159 66 197 53 112 124 206 216 212 135 202 191 200 197 197 226 232 251 162 188 186 181 178 167 166 166
8 80 0 157 180 138 124 136 151 158 68 98 56 331 131 129 166 136 134 129 96 287 107 203 197 193 246 354 167 193 189 189 201 226 213 244 241 233 198 196 195 177 172 175 174
123 137 88 83 135 132 155 184 160 151 159 179 155 173 160 159 166 172 149 168 171 161 180 179 134 114 224 102 188 229 210 204 213 227 230 248 257 273 190 203 179 188 180 183 178
126 69 83 132 145 166 193 165 186 146 240 172 167 141 153 175 137 114 61 64 148 173 176 165 144 136 223 150 120 277 225 204 219 231 223 234 243 176 188 198 199 192 191 184 175